TimeAKDT,TemperatureF,Dew PointF,Humidity,Sea Level PressureIn,VisibilityMPH,Wind Direction,Wind SpeedMPH,Gust SpeedMPH,PrecipitationIn,Events,Conditions,WindDirDegrees,DateUTC
12:16 AM,33.8,32.0,93,30.00,10.0,NNW,6.9,-,N/A,,Overcast,340,2013-03-12 08:16:00
12:36 AM,33.8,32.0,93,29.99,10.0,NNW,8.1,-,N/A,,Overcast,340,2013-03-12 08:36:00
12:56 AM,33.8,32.0,93,29.99,10.0,North,5.8,-,N/A,,Overcast,10,2013-03-12 08:56:00
1:16 AM,33.8,32.0,93,29.98,10.0,NNW,9.2,-,N/A,,Overcast,340,2013-03-12 09:16:00
1:36 AM,33.8,32.0,93,29.98,10.0,North,9.2,-,N/A,,Overcast,350,2013-03-12 09:36:00
1:56 AM,33.8,32.0,93,29.98,10.0,NNW,8.1,-,N/A,,Overcast,340,2013-03-12 09:56:00
2:16 AM,33.8,30.2,87,29.97,10.0,NW,4.6,-,N/A,,Overcast,320,2013-03-12 10:16:00
2:36 AM,33.8,30.2,87,29.97,10.0,North,5.8,-,N/A,,Overcast,350,2013-03-12 10:36:00
2:56 AM,33.8,30.2,87,29.97,10.0,North,4.6,-,N/A,,Overcast,360,2013-03-12 10:56:00
3:16 AM,33.8,28.4,81,29.96,10.0,North,9.2,-,N/A,,Overcast,360,2013-03-12 11:16:00
3:36 AM,33.8,28.4,81,29.96,10.0,NNW,6.9,-,N/A,,Overcast,340,2013-03-12 11:36:00
3:56 AM,33.8,28.4,81,29.95,10.0,NNW,4.6,-,N/A,,Overcast,340,2013-03-12 11:56:00
4:16 AM,35.6,24.8,65,29.95,10.0,North,5.8,-,N/A,,Overcast,360,2013-03-12 12:16:00
4:36 AM,33.8,24.8,70,29.94,10.0,NNW,5.8,-,N/A,,Overcast,330,2013-03-12 12:36:00
4:56 AM,33.8,24.8,70,29.94,10.0,NNW,9.2,-,N/A,,Overcast,340,2013-03-12 12:56:00
5:16 AM,35.6,23.0,60,29.94,10.0,NNW,13.8,19.6,N/A,,Overcast,340,2013-03-12 13:16:00
5:36 AM,33.8,24.8,70,29.93,10.0,North,11.5,-,N/A,,Overcast,350,2013-03-12 13:36:00
5:56 AM,33.8,24.8,70,29.93,10.0,NNW,13.8,24.2,N/A,,Overcast,330,2013-03-12 13:56:00
6:16 AM,33.8,19.4,56,29.93,10.0,North,9.2,18.4,N/A,,Overcast,350,2013-03-12 14:16:00
6:36 AM,35.6,17.6,48,29.92,10.0,North,11.5,-,N/A,,Overcast,350,2013-03-12 14:36:00
6:56 AM,35.6,17.6,48,29.92,10.0,North,12.7,23.0,N/A,,Overcast,360,2013-03-12 14:56:00
7:16 AM,33.8,15.8,48,29.92,10.0,North,17.3,21.9,N/A,,Overcast,350,2013-03-12 15:16:00
7:36 AM,33.8,15.8,48,29.92,10.0,North,13.8,17.3,N/A,,Overcast,350,2013-03-12 15:36:00
7:56 AM,33.8,15.8,48,29.91,10.0,North,13.8,21.9,N/A,,Mostly Cloudy,350,2013-03-12 15:56:00
8:16 AM,33.8,15.8,48,29.92,10.0,NW,9.2,18.4,N/A,,Mostly Cloudy,310,2013-03-12 16:16:00
8:36 AM,33.8,15.8,48,29.91,10.0,NNW,13.8,19.6,N/A,,Mostly Cloudy,330,2013-03-12 16:36:00
8:56 AM,33.8,15.8,48,29.91,10.0,North,12.7,25.3,N/A,,Overcast,350,2013-03-12 16:56:00
9:16 AM,33.8,15.8,48,29.91,10.0,North,12.7,25.3,N/A,,Overcast,350,2013-03-12 17:16:00
9:36 AM,33.8,15.8,48,29.92,10.0,North,16.1,24.2,N/A,,Overcast,350,2013-03-12 17:36:00
9:56 AM,33.8,17.6,52,29.92,10.0,NNW,13.8,23.0,N/A,,Scattered Clouds,340,2013-03-12 17:56:00
10:36 AM,33.8,12.2,41,29.92,10.0,North,15.0,24.2,N/A,,Clear,360,2013-03-12 18:36:00
10:56 AM,33.8,12.2,41,29.91,10.0,North,12.7,23.0,N/A,,Clear,360,2013-03-12 18:56:00
11:16 AM,33.8,12.2,41,29.91,10.0,North,16.1,23.0,N/A,,Clear,350,2013-03-12 19:16:00
11:36 AM,33.8,10.4,38,29.91,10.0,North,16.1,23.0,N/A,,Clear,360,2013-03-12 19:36:00
11:56 AM,33.8,10.4,38,29.91,10.0,North,12.7,23.0,N/A,,Clear,360,2013-03-12 19:56:00
12:16 PM,33.8,10.4,38,29.91,10.0,North,10.4,19.6,N/A,,Clear,360,2013-03-12 20:16:00
12:36 PM,33.8,10.4,38,29.91,10.0,North,13.8,19.6,N/A,,Clear,350,2013-03-12 20:36:00
12:56 PM,33.8,10.4,38,29.91,10.0,North,12.7,20.7,N/A,,Clear,360,2013-03-12 20:56:00
1:16 PM,33.8,10.4,38,29.91,10.0,NNE,12.7,19.6,N/A,,Clear,20,2013-03-12 21:16:00
1:36 PM,33.8,10.4,38,29.90,10.0,North,13.8,20.7,N/A,,Clear,360,2013-03-12 21:36:00
1:56 PM,33.8,10.4,38,29.89,10.0,North,16.1,24.2,N/A,,Clear,10,2013-03-12 21:56:00
2:16 PM,35.6,10.4,35,29.89,10.0,North,18.4,25.3,N/A,,Clear,350,2013-03-12 22:16:00
2:36 PM,35.6,10.4,35,29.88,10.0,North,10.4,26.5,N/A,,Clear,10,2013-03-12 22:36:00
2:56 PM,33.8,8.6,35,29.88,10.0,North,13.8,24.2,N/A,,Clear,360,2013-03-12 22:56:00
3:16 PM,33.8,8.6,35,29.88,10.0,North,16.1,21.9,N/A,,Clear,360,2013-03-12 23:16:00
3:36 PM,33.8,8.6,35,29.87,10.0,North,12.7,21.9,N/A,,Clear,350,2013-03-12 23:36:00
3:56 PM,33.8,8.6,35,29.86,10.0,North,15.0,21.9,N/A,,Clear,360,2013-03-12 23:56:00
4:16 PM,33.8,8.6,35,29.87,10.0,North,15.0,21.9,N/A,,Clear,350,2013-03-13 00:16:00
4:36 PM,32.0,8.6,38,29.86,10.0,North,11.5,-,N/A,,Clear,350,2013-03-13 00:36:00
4:56 PM,32.0,8.6,38,29.86,10.0,North,13.8,25.3,N/A,,Clear,350,2013-03-13 00:56:00
5:16 PM,32.0,6.8,35,29.86,10.0,North,12.7,23.0,N/A,,Clear,350,2013-03-13 01:16:00
5:36 PM,30.2,6.8,37,29.86,10.0,North,12.7,-,N/A,,Clear,350,2013-03-13 01:36:00
5:56 PM,30.2,6.8,37,29.86,10.0,North,10.4,18.4,N/A,,Clear,350,2013-03-13 01:56:00
6:16 PM,30.2,6.8,37,29.86,10.0,NNW,13.8,-,N/A,,Partly Cloudy,340,2013-03-13 02:16:00
6:36 PM,30.2,6.8,37,29.86,10.0,North,10.4,19.6,N/A,,Clear,10,2013-03-13 02:36:00
6:56 PM,30.2,5.0,34,29.86,10.0,NNW,13.8,-,N/A,,Partly Cloudy,340,2013-03-13 02:56:00
7:16 PM,30.2,5.0,34,29.86,10.0,NNW,13.8,18.4,N/A,,Clear,340,2013-03-13 03:16:00
7:36 PM,28.4,5.0,37,29.86,10.0,NNW,11.5,19.6,N/A,,Partly Cloudy,340,2013-03-13 03:36:00
7:56 PM,28.4,5.0,37,29.86,10.0,NNW,13.8,20.7,N/A,,Scattered Clouds,340,2013-03-13 03:56:00
8:16 PM,28.4,3.2,34,29.86,10.0,North,12.7,20.7,N/A,,Clear,350,2013-03-13 04:16:00
8:36 PM,28.4,3.2,34,29.86,10.0,NNW,12.7,18.4,N/A,,Clear,340,2013-03-13 04:36:00
8:56 PM,28.4,3.2,34,29.86,10.0,NNW,9.2,27.6,N/A,,Clear,340,2013-03-13 04:56:00
9:56 PM,28.4,3.2,34,29.86,10.0,NNW,15.0,20.7,N/A,,Mostly Cloudy,340,2013-03-13 05:56:00
10:16 PM,28.4,3.2,34,29.87,10.0,NNW,13.8,23.0,N/A,,Mostly Cloudy,340,2013-03-13 06:16:00
10:36 PM,28.4,1.4,31,29.87,10.0,NNW,12.7,-,N/A,,Scattered Clouds,340,2013-03-13 06:36:00
10:56 PM,28.4,3.2,34,29.87,10.0,NNW,9.2,17.3,N/A,,Mostly Cloudy,330,2013-03-13 06:56:00
11:16 PM,28.4,3.2,34,29.87,10.0,NNW,11.5,19.6,N/A,,Overcast,340,2013-03-13 07:16:00
11:36 PM,28.4,3.2,34,29.87,10.0,North,9.2,26.5,N/A,,Overcast,350,2013-03-13 07:36:00
11:56 PM,28.4,3.2,34,29.87,10.0,North,10.4,17.3,N/A,,Mostly Cloudy,350,2013-03-13 07:56:00